GW4474 Weather Reports


Display with metric or nautical units.
time (UTC)temp
F
wind
direction
speed
MPH
gust
MPH
rain 1hr
in
rain 24hr
in
rain mn
in
humidity
%
barometer
mb
20260506042516 38 0.0 0.0 0.00 0.00 0.00 88 1016.6
20260506041613 38 0.0 0.0 0.00 0.00 0.00 88 1016.7
20260506040609 38 0.0 0.0 0.00 0.00 0.00 88 1016.6
20260506035607 38 0.0 0.0 0.00 0.00 0.00 87 1016.7
20260506034602 39 0.0 0.0 0.00 0.00 0.00 87 1016.7
20260506033620 39 0.0 0.0 0.00 0.00 0.00 87 1016.7
20260506032616 39 0.0 0.0 0.00 0.00 0.00 86 1016.7
20260506031553 39 0.0 0.0 0.00 0.00 0.00 86 1016.7
20260506030610 40 0.0 0.0 0.00 0.00 0.00 86 1016.8
20260506025547 40 0.0 0.0 0.00 0.00 0.00 86 1016.8
20260506024544 40 0.0 0.0 0.00 0.00 0.00 85 1017.0
20260506023540 41 0.0 0.0 0.00 0.00 0.00 85 1017.1
20260506022538 42 0.0 0.0 0.00 0.00 0.00 86 1017.1
20260506021534 42 0.0 0.0 0.00 0.00 0.00 87 1017.1
20260506020530 42 0.0 0.0 0.00 0.00 0.00 87 1017.2
20260506015528 43 0.0 0.0 0.00 0.00 0.00 87 1017.2
20260506014524 43 0.0 0.0 0.00 0.00 0.00 87 1017.3
20260506013521 42 0.0 0.0 0.00 0.00 0.00 87 1017.5
20260506012538 42 0.0 0.0 0.00 0.00 0.00 87 1017.5
20260506011516 42 0.0 0.0 0.00 0.00 0.00 87 1017.5
20260506010612 42 0.0 0.0 0.00 0.00 0.00 88 1017.6
20260506005608 43 0.0 0.0 0.00 0.00 0.00 87 1017.5
20260506004626 43 0.0 0.0 0.00 0.00 0.00 87 1017.6
20260506003623 43 0.0 0.0 0.00 0.00 0.00 88 1017.6
20260506002639 43 0.0 0.0 0.00 0.00 0.00 88 1017.6
20260506001616 44 0.0 0.0 0.00 0.00 0.00 88 1017.6
20260506000553 44 0.0 0.0 0.00 0.00 0.00 87 1017.7
20260505235549 44 0.0 0.0 0.00 0.00 0.00 88 1017.7
20260505234607 44 0.0 0.0 0.00 0.00 0.00 87 1017.7
20260505233543 44 0.0 0.0 0.00 0.00 0.00 87 1017.7
20260505232540 43 0.0 0.0 0.00 0.00 0.00 86 1017.8
20260505231536 43 0.0 0.0 0.00 0.00 0.00 85 1017.8
20260505230533 42 0.0 0.0 0.00 0.00 0.00 85 1017.9
20260505225550 43 0.0 0.0 0.00 0.00 0.00 84 1017.9
20260505224527 43 0.0 0.0 0.00 0.00 0.00 84 1018.0
20260505223523 43 0.0 0.0 0.00 0.00 0.00 82 1018.0
20260505222520 43 0.0 0.0 0.00 0.00 0.00 82 1018.0
20260505221517 44 0.0 0.0 0.00 0.00 0.00 81 1018.0
20260505220615 44 0.0 0.0 0.00 0.00 0.00 80 1017.9
20260505215611 44 0.0 0.0 0.00 0.00 0.00 80 1018.0
20260505214608 45 0.0 0.0 0.00 0.00 0.00 78 1017.9
20260505213604 45 0.0 0.0 0.00 0.00 0.00 78 1017.8
20260505212621 46 0.0 0.0 0.00 0.00 0.00 77 1017.8
20260505211558 46 0.0 0.0 0.00 0.00 0.00 75 1017.9
20260505210555 46 0.0 0.0 0.00 0.00 0.00 74 1017.9
20260505205551 47 0.0 0.0 0.00 0.00 0.00 73 1018.0
20260505204549 47 0.0 0.0 0.00 0.00 0.00 73 1017.9
20260505203545 47 0.0 0.0 0.00 0.00 0.00 72 1017.8
20260505202542 48 0.0 0.0 0.00 0.00 0.00 71 1017.8
20260505201539 49 0.0 0.0 0.00 0.00 0.00 69 1017.7
20260505200535 50 0.0 0.0 0.00 0.00 0.00 67 1017.6
20260505195532 51 0.0 0.0 0.00 0.00 0.00 65 1017.6
20260505194529 52 0.0 0.0 0.00 0.00 0.00 64 1017.5
20260505193526 52 0.0 0.0 0.00 0.00 0.00 63 1017.4
20260505192523 52 0.0 0.0 0.00 0.00 0.00 62 1017.4
20260505191519 53 0.0 0.0 0.00 0.00 0.00 62 1017.3
20260505190516 53 0.0 0.0 0.00 0.00 0.00 62 1017.2
20260505185613 54 0.0 0.0 0.00 0.00 0.00 61 1017.3
20260505184631 54 0.0 0.0 0.00 0.00 0.00 60 1017.3
20260505183607 54 0.0 0.0 0.00 0.00 0.00 59 1017.3
20260505182603 55 0.0 0.0 0.00 0.00 0.00 59 1017.3
20260505181600 55 0.0 0.0 0.00 0.00 0.00 59 1017.4
20260505180557 55 0.0 0.0 0.00 0.00 0.00 59 1017.4
20260505175554 55 0.0 0.0 0.00 0.00 0.00 60 1017.3
20260505174551 55 0.0 0.0 0.00 0.00 0.00 59 1017.4
20260505173628 55 0.0 0.0 0.00 0.00 0.00 59 1017.6
20260505172625 56 0.0 0.0 0.00 0.00 0.00 59 1017.7
20260505171542 56 0.0 0.0 0.00 0.00 0.00 59 1017.7
20260505170538 56 0.0 0.0 0.00 0.00 0.00 60 1017.8
20260505165535 56 0.0 0.0 0.00 0.00 0.00 59 1017.8
20260505164532 55 0.0 0.0 0.00 0.00 0.00 60 1017.8
20260505163528 55 0.0 0.0 0.00 0.00 0.00 60 1018.0
20260505162526 55 0.0 0.0 0.00 0.00 0.00 61 1018.0
20260505161522 55 0.0 0.0 0.00 0.00 0.00 61 1018.0
20260505160519 54 0.0 0.0 0.00 0.00 0.00 60 1018.0
20260505152607 57 0.0 0.0 0.00 0.00 0.00 61 1018.1
20260505151603 57 0.0 0.0 0.00 0.00 0.00 62 1018.0
20260505150640 58 0.0 0.0 0.00 0.00 0.00 66 1018.1
20260505140525 57 0.0 0.0 0.00 0.00 0.00 62 1018.2
20260505124549 56 0.0 0.0 0.00 0.00 0.00 57 1018.3
20260505123526 55 0.0 0.0 0.00 0.00 0.00 59 1018.2
20260505122516 55 0.0 0.0 0.00 0.00 0.00 61 1018.2
20260505121614 55 0.0 0.0 0.00 0.00 0.00 66 1018.2
20260505120605 54 0.0 0.0 0.00 0.00 0.00 67 1018.2
20260505115601 53 0.0 0.0 0.00 0.00 0.00 68 1018.2
20260505114551 53 0.0 0.0 0.00 0.00 0.00 69 1018.3
20260505113549 53 0.0 0.0 0.00 0.00 0.00 70 1018.3
20260505112540 53 0.0 0.0 0.00 0.00 0.00 70 1018.3
20260505111536 54 0.0 0.0 0.00 0.00 0.00 68 1018.3
20260505110527 54 0.0 0.0 0.00 0.00 0.00 65 1018.3
20260505101600 56 0.0 0.0 0.00 0.00 0.00 59 1018.3
20260505100552 59 0.0 0.0 0.00 0.00 0.00 59 1018.3
20260505095549 59 0.0 0.0 0.00 0.00 0.00 62 1018.3
20260505094600 58 0.0 0.0 0.00 0.00 0.00 66 1018.3
20260505093536 56 0.0 0.0 0.00 0.00 0.00 72 1018.3
20260505092527 55 0.0 0.0 0.00 0.00 0.00 71 1018.3
20260505091525 54 0.0 0.0 0.00 0.00 0.00 72 1018.4
20260505090515 53 0.0 0.0 0.00 0.00 0.00 73 1018.4
20260505085612 53 0.0 0.0 0.00 0.00 0.00 75 1018.4
20260505084603 53 0.0 0.0 0.00 0.00 0.00 75 1018.3
20260505083600 52 0.0 0.0 0.00 0.00 0.00 75 1018.4
20260505082552 52 0.0 0.0 0.00 0.00 0.00 76 1018.3
20260505081548 52 0.0 0.0 0.00 0.00 0.00 76 1018.3
20260505080539 52 0.0 0.0 0.00 0.00 0.00 77 1018.4
20260505075536 52 0.0 0.0 0.00 0.00 0.00 77 1018.2
20260505074528 51 0.0 0.0 0.00 0.00 0.00 79 1018.2
20260505073524 51 0.0 0.0 0.00 0.00 0.00 80 1018.1
20260505072515 51 0.0 0.0 0.00 0.00 0.00 81 1018.0
20260505071612 51 0.0 0.0 0.00 0.00 0.00 81 1018.0
20260505070603 51 0.0 0.0 0.00 0.00 0.00 81 1018.1
20260505065559 51 0.0 0.0 0.00 0.00 0.00 81 1018.1
20260505064611 50 0.0 0.0 0.00 0.00 0.00 82 1018.1
20260505063648 50 0.0 0.0 0.00 0.00 0.00 82 1018.0
20260505062538 50 0.0 0.0 0.00 0.00 0.00 84 1018.0
20260505061535 49 0.0 0.0 0.00 0.00 0.00 84 1017.9
20260505060527 49 0.0 0.0 0.00 0.00 0.00 84 1017.9
20260505055517 49 0.0 0.0 0.00 0.00 0.00 84 1018.0
20260505054614 49 0.0 0.0 0.00 0.00 0.00 84 1017.9
20260505053605 49 0.0 0.0 0.00 0.00 0.00 84 1017.9
20260505052622 49 0.0 0.0 0.00 0.00 0.00 84 1017.9
20260505051612 48 0.0 0.0 0.00 0.00 0.00 84 1017.9
20260505050610 48 0.0 0.0 0.00 0.00 0.00 84 1017.9